Weather Roundup
Issued by NWS

Home | Current Version | Previous Version | Graphics & Text | Print | Product List | Glossary Off
Versions: 1 2 3 4 5 6 7 8 9 10 11 12 13 14 15 16 17 18 19 20 21 22 23 24 25 26 27 28 29 30 31 32 33 34 35 36 37 38 39 40 41 42 43 44 45 46 47 48 49 50

000
NZUS93 KARX 291659
HRRWXR

CURRENT HOURLY OBSERVATIONS ACROSS
MUCH OF THE UPPER MISSISSIPPI VALLEY
NATIONAL WEATHER SERVICE LA CROSSE WI
1100 AM CST THU JAN 29 2015


...SOUTHEAST MINNESOTA...


CITY           SKY/WX    TMP DP  RH WIND       PRES   REMARKS
ROCHESTER      CLOUDY    30  26  85 NW29G39   30.14R WCI  15
ROCHESTER/MAYO CLOUDY    30  26  83 NW21G31   30.14R WCI  17
WINONA         CLOUDY    34  27  75 N18G30    30.12R WCI  23
AUSTIN         CLOUDY    28  25  86 NW22G35   30.18R WCI  15
ALBERT LEA     CLOUDY    30  27  86 NW18G29   30.21R WCI  18
DODGE CENTER   CLOUDY    30  27  86 NW22G28   30.16R WCI  17
PRESTON        CLOUDY    30  27  91 NW23G31   30.12R FOG     WCI  16
OWATONNA       CLOUDY    30  25  80 NW22      30.21R WCI  17
FARIBAULT      CLOUDY    30  25  80 NW17G25   30.22R WCI  18
$$

...ELSEWHERE IN MINNESOTA...


CITY           SKY/WX    TMP DP  RH WIND       PRES   REMARKS
MINNEAPOLIS    CLOUDY    31  22  69 NW22      30.21R WCI  18
INTNL FALLS    LGT SNOW  11   5  77 NW18      30.26R WCI  -7
DULUTH         CLOUDY    23  16  74 NW17G25   30.11R WCI   9
RED WING       CLOUDY    34  25  69 NW12G18   30.17R WCI  25
REDWOOD FALLS  CLOUDY    27  18  69 NW22G36   30.34R WCI  13
MANKATO        CLOUDY    30  21  69 NW20      30.26R WCI  18
WORTHINGTON    CLOUDY    28  21  74 N28G33    30.35R WCI  13
FAIRMONT       CLOUDY    30  21  69 NW21G32   30.27R WCI  17
$$

...SOUTHWEST WISCONSIN...


CITY           SKY/WX    TMP DP  RH WIND       PRES   REMARKS
LA CROSSE      CLOUDY    36  26  67 NW16      30.09R WCI  26
PRAIRIE DU CHI CLOUDY    35  28  76 NW16G24   30.06R WCI  25
BOSCOBEL       CLOUDY    36  28  73 NW9G23    30.06R WCI  29
LONE ROCK      NOT AVBL
PLATTEVILLE    CLOUDY    33  30  88 NW16      30.01R WCI  23
FORT MC COY    CLOUDY    33  26  77 NW18G25   30.06R WCI  22
VIROQUA        CLOUDY    32  29  90 NW25G31   30.02R WCI  19
WIS DELLS      NOT AVBL
$$

...ELSEWHERE IN WISCONSIN...


CITY           SKY/WX    TMP DP  RH WIND       PRES   REMARKS
MILWAUKEE      CLOUDY    33  25  72 NW16      29.89R WCI  23
MADISON        CLOUDY    33  26  75 NW14G24   29.97R WCI  23
GREEN BAY      CLOUDY    33  26  75 NW18      29.91R WCI  22
EAU CLAIRE     CLOUDY    33  24  69 NW13G23   30.10R WCI  24
BLACK RVR FLS  CLOUDY    33  26  74 NW12G21   30.05R WCI  24
MEDFORD        CLOUDY    29  23  76 NW17G29   29.99R WCI  17
WAUSAU         CLOUDY    31  23  72 N16G33    29.95R WCI  20
WIS RAPIDS     CLOUDY    32  23  69 NW18G28   30.00R WCI  20
MARSHFIELD     CLOUDY    32  24  72 NW22G32   30.00R WCI  19
RICE LAKE      CLOUDY    31  23  74 NW10G21   30.12R WCI  22
$$

...NORTHEAST IOWA...


CITY           SKY/WX    TMP DP  RH WIND       PRES   REMARKS
DECORAH        CLOUDY    32  28  86 N16G28    30.08R WCI  21
MASON CITY     CLOUDY    30  25  81 N29G39    30.21R WCI  15
CHARLES CITY   CLOUDY    32  30  93 NW25G36   30.15R WCI  19
OELWEIN        MIX PCPN  32  30  93 NW29      30.11R WCI  18
$$

...ELSEWHERE IN IOWA...


CITY           SKY/WX    TMP DP  RH WIND       PRES   REMARKS
DES MOINES     CLOUDY    34  27  75 N17G26    30.26R WCI  23
IOWA CITY      CLOUDY    35  31  85 NW16G26   30.14R WCI  25
FORT DODGE     CLOUDY    30  25  80 N23G31    30.28R WCI  17
$$

...NORTHERN ILLINOIS...


CITY           SKY/WX    TMP DP  RH WIND       PRES   REMARKS
CHICAGO-OHARE  CLOUDY    34  27  75 NW22G28   29.90R WCI  22
CHICAGO-MIDWAY CLOUDY    36  28  73 NW21G29   29.90R WCI  25
MOLINE         CLOUDY    36  30  79 NW20G28   30.06R WCI  25
ROCKFORD       CLOUDY    34  26  72 NW14G25   29.98R WCI  25
PEORIA         CLOUDY    38  29  70 NW14G25   30.04R WCI  30
$$

NOTE: "FAIR" INDICATES FEW OR NO CLOUDS BELOW 12,000 FEET WITH NO
SIGNIFICANT WEATHER AND/OR OBSTRUCTIONS TO VISIBILITY. WIND
SPEEDS ARE IN MILES-PER-HOUR.



USA.gov is the U.S. government's official web portal to all federal, state and local government web resources and services.